Charles B. Wheeler Downtown Airport
KMKC : now visible

Airfield :











YOU CAN JOIN US ON...

 
LOGIN :

Register | Disclaimer

   EN    FR    IT 

 









Legend :    VFR   Marginal VFR   IFR   Intensive IFR   Very Intensive IFR
Visi :
Ceiling :
>= 8 km
>= 3000ft
5 to 8 km
1000 to 3000 ft
1500m to 5 km
500 to 1000 ft
800 to 1500m
200 to 500 ft
< 800m
< 200 ft
Symbols :   Thunderstorms  Fog  Heavy snow  Heavy precipitations  Wind > 20 kt






- Airport Elevation : 759 ft
- IATA code : MKC


KMKC - Charles B. Wheeler Downtown

CURRENT METAR :
  • 041454Z 01007KT 10SM OVC012 01/M03 A3024 RMK AO2 SLP246 T00061028 50004

EXPIRED METARs :
  • 041354Z 01009KT 10SM OVC012 00/M03 A3024 RMK AO2 SLP247 T00001033

TAF KMKC
Valid from the 04 at 12:00 until the 05 at 12:00 UTC


041120Z 0412/0512 02009KT P6SM OVC012
FM041600 06006KT P6SM SCT020 SCT150



MET'MAP, your aeronautical weather chart ! - Copyright ORBIFLY December 2007 - Disclaimer

ORBIFLY MET'MAP TEAM :

Programming & Development : Alexandra Zaïnal
Concept & original design : Baudouin d'Aumeries
Assistance for programming : Marc-Olivier Méhu
Technical & hardware support : Manuel Goepfert

Contact : metmap@orbifly.com




SOURCES & CREDITS :

   NOAA       Earth
Advisory